This is the latest recevied weather packets stored in our database for station/object WX2NJ. If no packets are shown the sender has not sent any weather packets the latest 10 day(s).
| Time | Temp. | Humidity | Pressure | Rain* | Wind** | Luminosity | Snow |
|---|---|---|---|---|---|---|---|
| 1778068027 | 18.33° C | 73% | 1014.5 hPa | 0 mm | - | 132 W/m² | - |
| 1778067724 | 18.89° C | 73% | 1014.5 hPa | 0 mm | - | 163 W/m² | - |
| 1778067423 | 18.89° C | 73% | 1014.4 hPa | 0 mm | - | 117 W/m² | - |
| 1778067120 | 18.33° C | 74% | 1014.5 hPa | 0 mm | - | 141 W/m² | - |
| 1778066815 | 18.33° C | 74% | 1014.6 hPa | 0 mm | - | 113 W/m² | - |
| 1778066514 | 17.78° C | 75% | 1014.5 hPa | 0 mm | - | 84 W/m² | - |
| 1778066211 | 17.78° C | 75% | 1014.4 hPa | 0 mm | - | 100 W/m² | - |
| 1778065909 | 17.78° C | 75% | 1014.6 hPa | 0 mm | - | 82 W/m² | - |
| 1778065606 | 17.78° C | 75% | 1014.1 hPa | 0 mm | - | 89 W/m² | - |
| 1778065303 | 17.78° C | 76% | 1014.3 hPa | 0 mm | - | 89 W/m² | - |
| 1778064999 | 17.22° C | 78% | 1014.5 hPa | 0 mm | - | 76 W/m² | - |
| 1778064696 | 17.22° C | 78% | 1014.3 hPa | 0 mm | - | 62 W/m² | - |
| 1778064395 | 16.67° C | 80% | 1014.3 hPa | 0 mm | - | 55 W/m² | - |
| 1778064092 | 16.11° C | 81% | 1014.4 hPa | 0 mm | - | 26 W/m² | - |
| 1778063789 | 16.11° C | 82% | 1014.5 hPa | 0 mm | - | 23 W/m² | - |
| 1778063486 | 16.11° C | 82% | 1014.5 hPa | 0 mm | - | 17 W/m² | - |
| 1778063184 | 16.11° C | 82% | 1014.3 hPa | 0 mm | - | 10 W/m² | - |
| 1778062881 | 16.11° C | 82% | 1014.4 hPa | 0 mm | - | 6 W/m² | - |
| 1778062578 | 16.11° C | 82% | 1014.3 hPa | 0 mm | - | 5 W/m² | - |
| 1778062274 | 16.11° C | 82% | 1014.4 hPa | 0 mm | - | 4 W/m² | - |
| 1778061973 | 16.11° C | 82% | 1014.1 hPa | 0 mm | - | 2 W/m² | - |
| 1778061671 | 16.11° C | 82% | 1014.2 hPa | 0 mm | - | 1 W/m² | - |
| 1778061369 | 16.11° C | 82% | 1014 hPa | 0 mm | - | 0 W/m² | - |
| 1778061066 | 16.11° C | 82% | 1014.2 hPa | 0 mm | - | 0 W/m² | - |
| 1778060763 | 16.11° C | 82% | 1014.1 hPa | 0 mm | - | 0 W/m² | - |
* Rain latest hour (hover to see other rain measurements)
** Current wind speed in m/s (hover to see current wind gust speed)